QFA507 YPAD-YMML

Flight info

Callsign QFA507
Flight time N/A
Altitude 31000
Route AD V255 BENDO Y12 ARBEY H119 ML
Aircraft B738/M-SDE2E3FGHIRWXY/LB1

Departure

Time 2026-05-07 08:16
Airport Adelaide International Airport (YPAD)

Arrival

Time N/A
Airport Melbourne Airport (YMML)
Time Latitude Longitude Altitude Speed Heading
2026-05-07 07:28 -34.94056 138.53660 23 ft 0 kts 318°
2026-05-07 08:08 -34.94062 138.53667 25 ft 4 kts 318°
2026-05-07 08:08 -34.94083 138.53689 23 ft 4 kts 319°
2026-05-07 08:08 -34.94102 138.53709 24 ft 3 kts 323°
2026-05-07 08:08 -34.94112 138.53717 23 ft 2 kts 332°
2026-05-07 08:09 -34.94123 138.53722 20 ft 2 kts 10°
2026-05-07 08:09 -34.94132 138.53716 20 ft 2 kts 51°
2026-05-07 08:09 -34.94136 138.53710 20 ft 0 kts 52°
2026-05-07 08:12 -34.94127 138.53724 20 ft 8 kts 51°
2026-05-07 08:13 -34.94064 138.53819 20 ft 17 kts 59°
2026-05-07 08:13 -34.94077 138.53949 19 ft 15 kts 76°
2026-05-07 08:13 -34.94017 138.54040 21 ft 11 kts 61°
2026-05-07 08:13 -34.93976 138.54109 20 ft 11 kts 52°
2026-05-07 08:14 -34.93959 138.54192 19 ft 9 kts 133°
2026-05-07 08:14 -34.93979 138.54222 20 ft 0 kts 133°
2026-05-07 08:15 -34.93980 138.54223 20 ft 1 kts 133°
2026-05-07 08:15 -34.94020 138.54271 21 ft 16 kts 139°
2026-05-07 08:15 -34.94085 138.54292 20 ft 6 kts 222°
2026-05-07 08:15 -34.94091 138.54284 21 ft 1 kts 227°
2026-05-07 08:16 -34.94233 138.54080 21 ft 65 kts 230°
2026-05-07 08:16 -34.94658 138.53461 18 ft 123 kts 230°
2026-05-07 08:16 -34.95317 138.52533 110 ft 159 kts 231°
2026-05-07 08:16 -34.95983 138.51458 721 ft 161 kts 232°
2026-05-07 08:17 -34.96657 138.50368 1413 ft 161 kts 231°
2026-05-07 08:17 -34.97332 138.49213 1967 ft 174 kts 231°
2026-05-07 08:17 -34.98138 138.48026 2461 ft 190 kts 227°
2026-05-07 08:17 -34.99054 138.46774 2811 ft 205 kts 226°
2026-05-07 08:18 -35.00068 138.45461 3220 ft 220 kts 225°
2026-05-07 08:18 -35.01182 138.44069 3637 ft 239 kts 224°
2026-05-07 08:18 -35.02412 138.42644 4244 ft 246 kts 217°
2026-05-07 08:18 -35.03890 138.41612 5033 ft 243 kts 198°
2026-05-07 08:19 -35.05565 138.41348 5733 ft 249 kts 176°
2026-05-07 08:19 -35.07223 138.41969 6044 ft 259 kts 153°
2026-05-07 08:19 -35.08722 138.43253 5942 ft 263 kts 143°
2026-05-07 08:19 -35.10006 138.44699 6617 ft 240 kts 136°
2026-05-07 08:20 -35.11018 138.46208 7792 ft 219 kts 128°
2026-05-07 08:20 -35.11640 138.47942 8339 ft 238 kts 107°
2026-05-07 08:20 -35.11675 138.50137 8271 ft 280 kts 85°
2026-05-07 08:20 -35.11082 138.52457 8819 ft 286 kts 72°
2026-05-07 08:21 -35.10443 138.54620 10118 ft 261 kts 76°
2026-05-07 08:21 -35.09802 138.56705 10689 ft 267 kts 77°
2026-05-07 08:21 -35.09353 138.58901 10608 ft 267 kts 89°
2026-05-07 08:21 -35.09218 138.61204 9978 ft 279 kts 92°
2026-05-07 08:22 -35.09123 138.63654 9062 ft 305 kts 92°
2026-05-07 08:22 -35.09009 138.66197 9269 ft 284 kts 92°
2026-05-07 08:22 -35.08881 138.68526 9445 ft 278 kts 92°
2026-05-07 08:22 -35.08760 138.70901 9829 ft 279 kts 92°
2026-05-07 08:23 -35.08615 138.73194 10925 ft 261 kts 90°
2026-05-07 08:23 -35.08403 138.75337 11835 ft 253 kts 87°
2026-05-07 08:23 -35.08151 138.77518 12143 ft 269 kts 90°
2026-05-07 08:23 -35.08037 138.79907 12186 ft 294 kts 94°
2026-05-07 08:24 -35.08026 138.82429 12807 ft 293 kts 96°
2026-05-07 08:24 -35.08086 138.84821 14076 ft 270 kts 98°
2026-05-07 08:24 -35.08199 138.87052 14975 ft 264 kts 98°
2026-05-07 08:24 -35.08302 138.89384 15051 ft 290 kts 97°
2026-05-07 08:25 -35.08374 138.91969 15070 ft 318 kts 96°
2026-05-07 08:25 -35.08392 138.94675 15947 ft 311 kts 93°
2026-05-07 08:25 -35.08315 138.97165 17308 ft 285 kts 90°
2026-05-07 08:25 -35.08167 138.99554 18120 ft 285 kts 88°
2026-05-07 08:26 -35.07728 139.04873 17861 ft 345 kts 87°
2026-05-07 08:26 -35.07475 139.07783 18666 ft 339 kts 87°
2026-05-07 08:26 -35.07230 139.10526 19940 ft 312 kts 87°
2026-05-07 08:27 -35.06996 139.13097 20843 ft 303 kts 87°
2026-05-07 08:27 -35.06761 139.15732 20891 ft 325 kts 87°
2026-05-07 08:27 -35.06520 139.18623 20600 ft 358 kts 87°
2026-05-07 08:27 -35.06083 139.21677 20813 ft 373 kts 78°
2026-05-07 08:28 -35.05893 139.24821 21195 ft 372 kts 102°
2026-05-07 08:28 -35.06612 139.27780 21984 ft 356 kts 121°
2026-05-07 08:28 -35.07940 139.30201 23083 ft 332 kts 137°
2026-05-07 08:28 -35.09583 139.32087 23952 ft 322 kts 143°
2026-05-07 08:29 -35.11298 139.33929 24034 ft 339 kts 144°
2026-05-07 08:29 -35.13167 139.35916 23426 ft 374 kts 143°
2026-05-07 08:29 -35.15196 139.38089 23264 ft 396 kts 142°
2026-05-07 08:29 -35.17220 139.40328 24186 ft 384 kts 141°
2026-05-07 08:30 -35.19079 139.42504 25531 ft 357 kts 139°
2026-05-07 08:30 -35.20708 139.44769 26238 ft 359 kts 132°
2026-05-07 08:30 -35.22207 139.47353 25873 ft 388 kts 127°
2026-05-07 08:30 -35.23659 139.50254 25723 ft 409 kts 123°
2026-05-07 08:31 -35.24988 139.53334 26366 ft 404 kts 119°
2026-05-07 08:31 -35.26159 139.56361 27559 ft 382 kts 118°
2026-05-07 08:31 -35.27234 139.59263 28585 ft 370 kts 117°
2026-05-07 08:31 -35.28242 139.62130 28841 ft 378 kts 116°
2026-05-07 08:32 -35.29249 139.65166 28316 ft 389 kts 115°
2026-05-07 08:32 -35.30224 139.68339 27125 ft 409 kts 113°
2026-05-07 08:32 -35.31172 139.71730 26023 ft 428 kts 111°
2026-05-07 08:32 -35.32175 139.75161 25592 ft 423 kts 121°
2026-05-07 08:33 -35.33765 139.78094 25340 ft 407 kts 136°
2026-05-07 08:33 -35.35846 139.80344 25094 ft 392 kts 151°
2026-05-07 08:33 -35.38200 139.81915 24868 ft 380 kts 162°
2026-05-07 08:33 -35.40662 139.82945 24684 ft 368 kts 170°
2026-05-07 08:34 -35.43106 139.83571 24486 ft 360 kts 175°
2026-05-07 08:34 -35.45573 139.83936 24210 ft 355 kts 179°
2026-05-07 08:34 -35.48029 139.84130 23835 ft 353 kts 181°
2026-05-07 08:34 -35.50492 139.84226 23414 ft 353 kts 183°
2026-05-07 08:35 -35.52943 139.84387 23050 ft 354 kts 176°
2026-05-07 08:35 -35.55362 139.85123 22549 ft 363 kts 165°
2026-05-07 08:35 -35.57676 139.86433 22089 ft 369 kts 155°
2026-05-07 08:35 -35.59817 139.88177 21861 ft 368 kts 147°
2026-05-07 08:36 -35.61738 139.90225 21792 ft 363 kts 141°
2026-05-07 08:36 -35.63444 139.92481 21639 ft 360 kts 135°
2026-05-07 08:36 -35.64985 139.94917 21267 ft 362 kts 130°
2026-05-07 08:36 -35.66397 139.97517 20820 ft 368 kts 127°
2026-05-07 08:37 -35.67681 140.00262 20440 ft 371 kts 123°
2026-05-07 08:37 -35.68823 140.03103 20226 ft 369 kts 119°
2026-05-07 08:37 -35.69821 140.05986 20109 ft 363 kts 116°
2026-05-07 08:37 -35.70694 140.08893 19910 ft 361 kts 113°
2026-05-07 08:38 -35.71465 140.11836 19577 ft 363 kts 111°
2026-05-07 08:38 -35.72152 140.14843 19195 ft 366 kts 109°
2026-05-07 08:38 -35.72750 140.17893 18897 ft 367 kts 107°
2026-05-07 08:38 -35.73255 140.20953 18793 ft 361 kts 104°
2026-05-07 08:39 -35.73652 140.23964 18771 ft 353 kts 102°
2026-05-07 08:39 -35.73951 140.26941 18590 ft 350 kts 100°
2026-05-07 08:39 -35.74165 140.29911 18166 ft 355 kts 98°
2026-05-07 08:39 -35.74299 140.32970 17737 ft 359 kts 96°
2026-05-07 08:40 -35.74341 140.36037 17515 ft 357 kts 94°
2026-05-07 08:40 -35.74281 140.39059 17450 ft 350 kts 91°
2026-05-07 08:40 -35.74448 140.41995 17091 ft 343 kts 110°
2026-05-07 08:40 -35.75401 140.44712 16124 ft 352 kts 129°
2026-05-07 08:41 -35.77045 140.46944 15550 ft 349 kts 147°
2026-05-07 08:41 -35.79044 140.48395 15838 ft 318 kts 163°
2026-05-07 08:41 -35.81065 140.49038 16256 ft 287 kts 179°
2026-05-07 08:41 -35.83019 140.49010 16041 ft 280 kts 192°
2026-05-07 08:42 -35.84954 140.48420 15325 ft 295 kts 198°
2026-05-07 08:42 -35.86944 140.47668 14892 ft 300 kts 199°
2026-05-07 08:42 -35.88904 140.46916 14996 ft 286 kts 199°
2026-05-07 08:42 -35.90750 140.46217 15197 ft 270 kts 199°
2026-05-07 08:43 -35.92541 140.45565 14992 ft 270 kts 198°
2026-05-07 08:43 -35.94387 140.44920 14434 ft 283 kts 197°
2026-05-07 08:43 -35.96301 140.44273 13947 ft 291 kts 196°
2026-05-07 08:43 -35.98236 140.43646 13904 ft 282 kts 196°
2026-05-07 08:44 -36.00105 140.43078 14051 ft 269 kts 195°
2026-05-07 08:44 -36.01907 140.42574 13922 ft 265 kts 194°
2026-05-07 08:44 -36.03741 140.42105 13438 ft 274 kts 193°
2026-05-07 08:44 -36.04997 140.41807 13075 ft 281 kts 192°